This demonstration page uses our WeatherBlox Daily Observations layout. Learn more.

41.55636, -103.73856

Hourly Observations for September 29, 2020

Temp ( °F °C ) Dew Point ( °F °C ) Humidity (%) Winds ( mph kmh ) Pressure ( in mb ) Visibility ( mi km ) Precip ( " mm )
12:58 am 00:58 Clear 39 3.7 17 -8.5 41 41 Calm 30.25 1024 10 16.0934 0 0
1:58 am 01:58 Clear 37 2.7 17 -8.3 45 45 WNW 6 9 30.23 1024 10 16.0934 0 0
2:58 am 02:58 Clear 38 3.5 16 -8.8 41 41 W 7 11 30.19 1023 10 16.0934 0 0
3:58 am 03:58 Clear 40 4.4 14 -10.2 34 34 WSW 7 11 30.18 1022 10 16.0934 0 0
4:58 am 04:58 Clear 41 5.2 15 -9.4 34 34 SW 8 13 30.18 1022 10 16.0934 0 0
5:58 am 05:58 Clear 41 5.1 17 -8.4 37 37 W 7 11 30.18 1022 10 16.0934 0 0
6:58 am 06:58 Sunny 43 5.9 16 -8.8 34 34 W 10 17 30.19 1023 10 16.0934 0 0
7:58 am 07:58 Sunny 49 9.4 17 -8.6 27 27 WNW 9 15 30.19 1023 10 16.0934 0 0
8:56 am 08:56 Sunny 56 13.3 18 -7.6 23 23 WNW 9 15 30.19 1023 10 16.0934 0 0
9:56 am 09:56 Sunny 64 17.7 19 -7.5 17 17 NW 15 24 30.18 1022 10 16.0934 0 0
10:56 am 10:56 Sunny 71 21.4 20 -6.6 15 15 NW 22 35 30.15 1021 10 16.0934 0 0
11:56 am 11:56 Sunny 72 22.4 21 -5.9 15 15 NW 20 31 30.14 1021 10 16.0934 0 0
12:56 pm 12:56 Sunny 75 23.8 23 -5 14 14 NW 24 39 30.11 1020 10 16.0934 0 0
1:56 pm 13:56 Sunny 76 24.5 25 -4.1 15 15 NNW 22 35 30.08 1019 10 16.0934 0 0
2:56 pm 14:56 Sunny 77 24.9 24 -4.4 14 14 NNW 18 30 30.06 1018 10 16.0934 0 0
3:56 pm 15:56 Sunny 78 25.4 23 -5.2 13 13 NW 21 33 30.03 1017 10 16.0934 0 0
4:56 pm 16:56 Sunny 78 25.3 24 -4.6 13 13 NNW 16 26 30.02 1017 10 16.0934 0 0
5:56 pm 17:56 Sunny 74 23.6 23 -5 14 14 N 9 15 30.02 1017 10 16.0934 0 0
6:56 pm 18:56 Clear 67 19.6 24 -4.5 19 19 SW 3 6 30.04 1017 10 16.0934 0 0
7:56 pm 19:56 Clear 61 15.9 24 -4.5 24 24 SSW 7 11 30.02 1017 10 16.0934 0 0
8:56 pm 20:56 Clear 58 14.3 24 -4.6 27 27 SSW 9 15 30.01 1016 10 16.0934 0 0
9:56 pm 21:56 Clear 54 12.1 24 -4.2 32 32 NNW 9 15 30.04 1017 10 16.0934 0 0
10:56 pm 22:56 Clear 50 10.1 25 -3.9 37 37 SW 9 15 30.03 1017 10 16.0934 0 0
11:56 pm 23:56 Clear 45 7 25 -3.9 46 46 SW 8 13 30.05 1018 10 16.0934 0 0

Powered by AerisWeather